Weather History for MMLO - December, 2012

Change the Weather History Date:

Wednesday, December 12, 2012

  Actual Average Record
Temperature  
Mean Temperature 62 °F -  
Max Temperature 80 °F 74 °F 86 °F (2005)
Min Temperature 44 °F 42 °F 35 °F (2004)
Degree Days  
Heating Degree Days 3    
Growing Degree Days 12 (Base 50)    
Moisture  
Dew Point 41 °F    
Average Humidity 54    
Maximum Humidity 100    
Minimum Humidity 21    
Precipitation  
Precipitation 0.00 in - - ()
Sea Level Pressure  
Sea Level Pressure 30.17 in    
Wind  
Wind Speed 2 mph ()    
Max Wind Speed 7 mph    
Max Gust Speed -    
Visibility 9.0 miles    
Events      
Averages and records for this station are not official NWS values.
T = Trace of Precipitation, MM = Missing Value Source: Averaged Metar Reports

Daily Weather History Graph

Daily Weather History Graph

Search for Another Location

Airport or City:

Trip Planner

Search our weather history database for the weather conditions in past years. The results will help you decide how hot, cold, wet, or windy it might be!

Date:

Astronomy

Dec. 12, 2012 Rise Set
Actual Time 7:13 AM CST 6:06 PM CST
Civil Twilight 6:49 AM CST 6:30 PM CST
Nautical Twilight 6:21 AM CST 6:58 PM CST
Astronomical Twilight 5:54 AM CST 7:25 PM CST
Moon 6:22 AM CST (12/12) 5:43 PM CST (12/12)
Length of Visible Light 11h 40m
Length of Day
10h 52m
Waning Crescent, 1% of the Moon is Illuminated
Dec 12
Waning Crescent
Dec 13
New
Dec 19
First Quarter
Dec 28
Full
Jan 4
Last Quarter

Hourly Weather History & Observations

Time (CST) Temp. Dew Point Humidity Pressure Visibility Wind Dir Wind Speed Gust Speed Precip Events Conditions
12:43 AM 50.0 °F 44.6 °F 82% 30.24 in 8.0 mi ENE 5.8 mph - N/A   Scattered Clouds
1:43 AM 48.2 °F 46.4 °F 93% 30.24 in 8.0 mi Calm Calm - N/A   Scattered Clouds
3:43 AM 48.2 °F 46.4 °F 93% 30.21 in 8.0 mi NNE 5.8 mph - N/A   Scattered Clouds
4:43 AM 46.4 °F 44.6 °F 93% 30.24 in 8.0 mi Calm Calm - N/A   Mostly Cloudy
6:43 AM 44.6 °F 44.6 °F 100% 30.24 in 8.0 mi Calm Calm - N/A   Mostly Cloudy
7:46 AM 44.6 °F 44.6 °F 100% 30.27 in 9.0 mi Calm Calm - N/A   Scattered Clouds
8:44 AM 55.4 °F 46.4 °F 72% 30.04 in 10.0 mi Calm Calm - N/A   Mostly Cloudy
9:44 AM 64.4 °F 46.4 °F 52% 30.29 in 10.0 mi Calm Calm - N/A   Mostly Cloudy
10:46 AM 69.8 °F 44.6 °F 40% 30.29 in 10.0 mi Calm Calm - N/A   Mostly Cloudy
11:44 AM 69.8 °F 44.6 °F 40% 29.99 in 10.0 mi Calm Calm - N/A   Mostly Cloudy
12:41 PM 75.2 °F 42.8 °F 31% 30.27 in 10.0 mi Calm Calm - N/A   Mostly Cloudy
1:49 PM 77.0 °F 39.2 °F 26% 30.21 in 10.0 mi Calm Calm - N/A   Mostly Cloudy
2:42 PM 75.2 °F 39.2 °F 27% 29.90 in 10.0 mi SW 5.8 mph - N/A   Mostly Cloudy
3:44 PM 80.6 °F 37.4 °F 21% 30.18 in 10.0 mi Calm Calm - N/A   Mostly Cloudy
4:43 PM 75.2 °F 35.6 °F 24% 30.18 in 10.0 mi SSW 6.9 mph - N/A   Mostly Cloudy
5:42 PM 69.8 °F 35.6 °F 28% 29.95 in 10.0 mi SE 5.8 mph - N/A   Mostly Cloudy
6:41 PM 66.2 °F 33.8 °F 30% 30.21 in 8.0 mi Calm Calm - N/A   Overcast
7:40 PM 64.4 °F 35.6 °F 34% 30.24 in 8.0 mi NNE 4.6 mph - N/A   Mostly Cloudy
8:46 PM 59.0 °F 35.6 °F 42% 30.00 in 8.0 mi West 6.9 mph - N/A   Mostly Cloudy
9:50 PM 57.2 °F 35.6 °F 44% 30.27 in 8.0 mi NE 6.9 mph - N/A   Mostly Cloudy
10:50 PM 55.4 °F 41.0 °F 58% 30.28 in 8.0 mi Calm Calm - N/A   Mostly Cloudy
11:50 PM 55.4 °F 41.0 °F 58% 30.00 in 8.0 mi NNE 5.8 mph - N/A   Mostly Cloudy